Location: Buisson
(44.2787°N, 4.9969°E)
Time: 07:30:40
(UTC+00:00)

Meteor 1-11 Rocket - Pass Details

Date: 18 April 2021
Orbit: 832 x 915 km, 81.2° (Epoch: 05 May)

Event Time Altitude Azimuth Distance (km) Brightness Sun altitude
Rises 00:25:12 0° 350° (N) 3,512 7.8 -33.9°
Reaches altitude 10° 00:27:39 10° 352° (N) 2,579 6.9 -33.8°
Enters shadow 00:32:12 54° 8° (N) 1,089 4.4 -33.6°
